Location: D�nning
(49.2479°N, 12.8491°E)
Time: 06:15:39
(UTC+00:00)

SJ 16-02 - Pass Details

Date: 18 September 2020
Orbit: 606 x 616 km, 75.0° (Epoch: 27 October)

Event Time Altitude Azimuth Distance (km) Brightness Sun altitude
Rises 17:58:20 0° 212° (SSW) 2,854 5.1 -7.9°
Reaches altitude 10° 18:00:36 10° 217° (SW) 1,954 4.3 -8.3°
Maximum altitude 18:04:53 54° 296° (WNW) 739 2.2 -9.0°
Drops below altitude 10° 18:09:12 10° 14° (NNE) 1,968 3.9 -9.7°
Sets 18:11:29 0° 19° (NNE) 2,876 4.7 -10.0°
